Home > Weather > St. Petersburg > Past weeks

Flag for USA Past Weather in St. Petersburg, Florida, USA — Yesterday and Last 2 Weeks

Now
79 °F

Passing clouds.


Feels Like: 83 °F
Forecast: 79 / 89 °F
Wind: 18 mph from East

Location: Whitted Airport

Current Time: Aug 26, 2016 at 10:02:02 AM

Latest Report: Aug 26, 2016 at 8:53 AM


Visibility: 10 mi

Pressure: 29.98 "Hg

Humidity: 94%

Dew Point: 77 °F

Location of St. PetersburgLocation

Past Weather in St. Petersburg — Graph

°F

St. Petersburg Temperature Yesterday

Maximum temperature yesterday: 87 °F (at 3:53 PM)
Minimum temperature yesterday: 77 °F (at 4:53 AM)
Average temperature yesterday: 82 °F

High & Low Weather Summary for the Past Weeks

 TemperatureHumidityPressure
High90 °F (Aug 16, 2:53 PM)100% (Aug 12, 4:53 AM)30.16 "Hg (Aug 12, 4:53 AM)
Low75 °F (Aug 12, 4:53 AM)53% (Aug 23, 2:53 PM)29.92 "Hg (Aug 20, 5:53 PM)
Average81 °F82%30.04 "Hg
* Reported Aug 11 8:53 AM — Aug 26 8:53 AM, St. Petersburg, Weather by CustomWeather, © 2016

Note: Actual official high and low records may vary slightly from our data, if they occured in-between our weather recording intervals... More about our weather records

Advertising

St. Petersburg Weather History for the Previous 24 Hours

Scroll right to see more
 ConditionsComfort  
Time TempWeatherWind HumidityBarometerVisibility
8:53 AM
Fri, Aug 26
79 °FPassing clouds.18 mph94%29.98 "Hg10 mi
7:53 AM78 °FClear.15 mph93%29.98 "Hg10 mi
6:53 AM77 °FClear.13 mph96%29.97 "Hg10 mi
5:53 AM77 °FClear.12 mph96%29.97 "Hg10 mi
4:53 AM77 °FClear.9 mph94%29.96 "Hg10 mi
3:53 AM77 °FClear.13 mph94%29.97 "Hg10 mi
2:53 AM78 °FClear.13 mph87%29.98 "Hg10 mi
1:53 AM79 °FClear.10 mph82%29.99 "Hg10 mi
12:53 AM80 °FClear.16 mph79%29.99 "Hg10 mi
11:53 PM
Thu, Aug 25
80 °FClear.18 mph76%30.01 "Hg10 mi
10:53 PM81 °FClear.18 mph74%30.00 "Hg10 mi
9:53 PM82 °FClear.17 mph70%29.98 "Hg10 mi
8:53 PM83 °FSunny.20 mph70%29.96 "Hg10 mi
7:53 PM85 °FSunny.20 mph65%29.96 "Hg10 mi
6:53 PM86 °FSunny.20 mph63%29.95 "Hg10 mi
5:53 PM87 °FSunny.17 mph63%29.94 "Hg10 mi
4:53 PM87 °FSunny.18 mph67%29.93 "Hg10 mi
3:53 PM87 °FSunny.12 mph67%29.94 "Hg10 mi
2:53 PM86 °FSunny.13 mph70%29.97 "Hg10 mi
1:53 PM85 °FSunny.15 mph72%30.00 "Hg10 mi
12:53 PM84 °FSunny.13 mph74%30.02 "Hg10 mi
11:53 AM83 °FSunny.13 mph77%30.03 "Hg10 mi
10:53 AM82 °FSunny.14 mph79%30.04 "Hg10 mi
Weather by CustomWeather, © 2016

See weather overviewHow to use our weather pages